Regional Weather Roundup
Issued by NWS Albany, NY

Current Version | Previous Version | Text Only | Print | Product List | Glossary On
Versions: 1 2 3 4 5 6 7 8 9 10 11 12 13 14 15 16 17 18 19 20 21 22 23 24 25 26 27 28 29 30 31 32 33 34 35 36 37 38 39 40 41 42 43 44 45 46 47 48 49 50
000
ASUS41 KALY 201110
RWRALY

NEW YORK STATE HOURLY WEATHER ROUNDUP
NATIONAL WEATHER SERVICE ALBANY NY
600 AM EST SAT JAN 20 2018

NOTE: "FAIR" INDICATES FEW OR NO CLOUDS BELOW 12,000 FEET WITH NO
SIGNIFICANT WEATHER AND/OR NO OBSTRUCTIONS TO VISIBILITY.

NYZ032-033-038>043-046>054-057>066-NYZ062>081-082-084-201200-
EAST


CITY           SKY/WX    TMP DP  RH WIND       PRES   REMARKS
ALBANY         MOCLDY    29  19  66 S8        29.74S WCI  21
GLENS FALLS    FAIR      28  20  71 S13       29.70S WCI  17
POUGHKEEPSIE   FAIR      32  19  58 CALM      29.80F
NEWBURGH       PTCLDY    34  23  64 SW8       29.81F WCI  27
MONTGOMERY     FAIR      26  18  71 SW7       29.79F WCI  18
WHITE PLAINS   FAIR      36  20  52 W7        29.82F WCI  30
ISLIP          FAIR      36  25  64 SW10      29.87F WCI  28
NEW YORK CITY  FAIR      40  20  44 SW12      29.87F WCI  33
CENTRAL PARK   FAIR      40  20  44 W14G23    29.89S WCI  32
$$

NYZ005>009-017-018-044>046-055-056-201200-
CENTRAL


CITY           SKY/WX    TMP DP  RH WIND       PRES   REMARKS
FULTON         FAIR      37  21  52 SW9       29.73R WCI  30
SYRACUSE       FAIR      36  22  56 SW9       29.73R WCI  29
ROME           FAIR      20  16  84 CALM      29.75R
ELMIRA         FAIR      36  22  56 SW8       29.79R WCI  30
BINGHAMTON     FAIR      31  19  61 W10       29.75R WCI  22
MONTICELLO     FAIR      27  20  75 W6        29.79R WCI  20
$$

NYZ026>034-041>043-087-201200-
NORTH


CITY           SKY/WX    TMP DP  RH WIND       PRES   REMARKS
WATERTOWN      FAIR      37  26  64 SW21G28   29.68R WCI  26
FORT DRUM      NOT AVBL
OGDENSBURG     FAIR      38  29  69 SW18G26   29.59R WCI  29
MASSENA        FAIR      40  28  62 SW24G39   29.57R WCI  29
SARANAC LAKE   MOCLDY    32  23  69 SW14G31   29.55R WCI  22
PLATTSBURGH    FAIR      31  21  66 CALM      29.58R
$$

NYZ001>004-010>016-019>021-085-201200-
WEST


CITY           SKY/WX    TMP DP  RH WIND       PRES   REMARKS
NIAGARA FALLS  FAIR      38  24  57 SW33G43   29.77R WCI  25
BUFFALO        MOCLDY    37  25  61 SW30G44   29.77R WCI  24
DUNKIRK        FAIR      47  24  40 SW22G29   29.83R
JAMESTOWN      FAIR      31  22  69 SW14      29.83R WCI  21
WELLSVILLE     FAIR      33  21  61 W18G31    29.78R WCI  22
ROCHESTER      MOCLDY    41  25  53 W24G37    29.73R
PENN YAN       FAIR      36  20  52 SW13      29.75R WCI  27
$$

             KEY
       WCI = WIND CHILL INDEX
       VSB = VISIBILITY
       HX  = HEAT INDEX
$$



USA.gov is the U.S. government's official web portal to all federal, state and local government web resources and services.